Location: St Paul
(33.4390°N, 83.7350°W)
Time: 05:39:33
(UTC-04:00)

NOSS 3-4 (C) - Pass Details

Date: 06 October 2017
Orbit: 957 x 1255 km, 63.4° (Epoch: 15 October)

Event Time Altitude Azimuth Distance (km) Brightness Sun altitude
Rises 21:40:03 0° 329° (NNW) 3,910 7.3 -31.4°
Reaches altitude 10° 21:42:39 10° 329° (NNW) 2,992 6.5 -31.9°
Enters shadow 21:49:32 83° 312° (NW) 1,186 3.8 -33.3°
